Regional Weather Roundup
Issued by NWS

Home | Current Version | Previous Version | Graphics & Text | Print | Product List | Glossary On
Versions: 1 2 3 4 5 6 7 8 9 10 11 12 13 14 15 16 17 18 19 20 21 22 23 24 25 26 27 28 29 30 31 32 33 34 35 36 37 38 39 40 41 42 43 44 45 46 47 48 49 50
866
ASUS44 KJAN 021803
RWRMS

MISSISSIPPI HOURLY WEATHER ROUNDUP
NATIONAL WEATHER SERVICE JACKSON MS
1200 PM CST MON MAR 02 2015

NOTE: "FAIR: INDICATES FEW OR NO CLOUDS BELOW 12,000 FEET WITH NO
SIGNIFICANT WEATHER AND/OR OBSTRUCTIONS TO VISIBILITY.

MSZ001>002-007>008-010>013-018>021-025>028-034>036-021900-
NORTHWEST MISSISSIPPI

CITY           SKY/WX    TMP DP  RH WIND       PRES   REMARKS
CLARKSDALE     CLOUDY    37  37 100 N9        30.42F WCI  31
CLEVELAND      CLOUDY    39  39 100 N10       30.39F WCI  32
GREENWOOD        N/A    N/A N/A N/A MISG      30.37F
GREENVILLE     CLOUDY    40  37  89 N15       30.39S FOG     WCI  32
6HR MIN TEMP:  37; 6HR MAX TEMP:  40; 6HR PCP:  0.05;

OXFORD         CLOUDY    37  36  93 NE7       30.42S FOG     WCI  32
TUNICA         LGT RAIN  37  32  81 NE7       30.44F WCI  32
$$

MSZ003>006-009-014>017-022>024-029>033-037>039-021900-
NORTHEAST MISSISSIPPI

CITY           SKY/WX    TMP DP  RH WIND       PRES   REMARKS
COLUMBUS AFB   LGT RAIN  46  46 100 N8        30.36F
6HR MIN TEMP:  45; 6HR MAX TEMP:  47; 6HR PCP:  0.58;

CORINTH        CLOUDY    43  36  75 NE12      30.39F
GOLDN TRIANGLE FOG       46  43  87 N8        30.36F VSB 1
STARKVILLE     DRIZZLE   43  43 100 N3        30.37F
TUPELO         CLOUDY    42  38  85 E9        30.38F
6HR MIN TEMP:  39; 6HR MAX TEMP:  42; 6HR PCP:  0.01;

$$

MSZ040-058-021900-
CENTRAL MISSISSIPPI

CITY           SKY/WX    TMP DP  RH WIND       PRES   REMARKS
JACKSON INTL   LGT RAIN  52  51  97 N6        30.32F VSB 3/4
6HR MIN TEMP:  50; 6HR MAX TEMP:  52; 6HR PCP: TRACE;

JACKSON HAWKNS LGT RAIN  51  50  96 VRB5      30.32F FOG
6HR MIN TEMP:  47; 6HR MAX TEMP:  51; 6HR PCP: TRACE;

MERIDIAN KEY   CLOUDY    58  55  90 NE7       30.32F
6HR MIN TEMP:  54; 6HR MAX TEMP:  58; 6HR PCP:  0.10;

MERIDIAN NAS   CLOUDY    57  55  94 NE5       30.33F FOG
6HR MIN TEMP:  53; 6HR MAX TEMP:  57; 6HR PCP:  0.10;

VICKSBURG      CLOUDY    45  43  93 NE7       30.35F
6HR MIN TEMP:  42; 6HR MAX TEMP:  45; 6HR PCP: TRACE;

$$

MSZ059>079-021900-
SOUTH MISSISSIPPI

CITY           SKY/WX    TMP DP  RH WIND       PRES   REMARKS
BROOKHAVEN     LGT RAIN  55  55 100 N6        30.31F
HATTIESBURG    CLOUDY    61  60  97 CALM      30.30S FOG
6HR MIN TEMP:  58; 6HR MAX TEMP:  61;

MCCOMB         LGT RAIN  63  62  97 E3        30.28F FOG
6HR MIN TEMP:  60; 6HR MAX TEMP:  63; 6HR PCP:  0.06;

NATCHEZ        CLOUDY    46  45  93 N6        30.32F
6HR MIN TEMP:  45; 6HR MAX TEMP:  46; 6HR PCP:  0.45;

PINE BELT      CLOUDY    61  57  88 NE5       30.31S VSB 1
6HR MIN TEMP:  57; 6HR MAX TEMP:  61;

$$

MSZ080>082-021900-
COASTAL MISSISSIPPI

CITY           SKY/WX    TMP DP  RH WIND       PRES   REMARKS
BAY ST LOUIS   FOG       64  63  94 CALM      30.27F VSB 1
BILOXI         CLOUDY    66  66 100 S5        30.27F FOG
6HR MIN TEMP:  59; 6HR MAX TEMP:  67; 6HR PCP: TRACE;

PASCAGOULA     CLOUDY    69  66  90 SE6       30.28F
6HR MIN TEMP:  57; 6HR MAX TEMP:  69; 6HR PCP: TRACE;

GULFPORT       FOG       64  63  96 SE7       30.27F VSB 1/4
6HR MIN TEMP:  58; 6HR MAX TEMP:  64; 6HR PCP:  0.01;

$$



USA.gov is the U.S. government's official web portal to all federal, state and local government web resources and services.